This demonstration page uses our WeatherBlox Daily Observations layout. Learn more.

Left ArrowRight Arrow

53.62937, 11.41316

Hourly Observations for July 30, 2022

Temp ( °F °C ) Dew Point ( °F °C ) Humidity (%) Winds ( mph kmh ) Pressure ( in mb ) Visibility ( mi km ) Precip ( " mm )
12:20 am 00:20 Cloudy 63 17 57 14 83 83 E 3 6 30.03 1017 30 48 N/A
12:50 am 00:50 Mostly Cloudy 61 16 57 14 88 88 NE 2 4 30.03 1017 30 48 N/A
1:20 am 01:20 Cloudy 61 16 55 13 83 83 NNE 3 6 30.03 1017 30 48 N/A
1:50 am 01:50 Partly Cloudy 61 16 55 13 83 83 NE 3 6 30.03 1017 30 48 N/A
2:20 am 02:20 Mostly Clear 61 16 55 13 83 83 E 2 4 30.03 1017 30 48 N/A
2:50 am 02:50 Mostly Clear 59 15 55 13 88 88 ENE 2 4 30.03 1017 30 48 N/A
3:20 am 03:20 Mostly Clear 59 15 55 13 88 88 ENE 3 6 30.00 1016 30 48 N/A
3:50 am 03:50 Mostly Clear 57 14 55 13 94 94 Calm 30.00 1016 30 48 N/A
4:20 am 04:20 Mostly Cloudy 57 14 55 13 94 94 ENE 3 6 30.00 1016 30 48 N/A
4:50 am 04:50 Partly Cloudy 57 14 54 12 88 88 E 5 7 30.00 1016 30 48 N/A
5:20 am 05:20 Mostly Clear 57 14 55 13 94 94 E 5 7 30.00 1016 7 11 N/A
5:50 am 05:50 Mostly Sunny 57 14 55 13 94 94 Calm 30.00 1016 7 11 N/A
6:20 am 06:20 Mostly Sunny 57 14 55 13 94 94 VRB 2 4 30.00 1016 7 11 N/A
6:50 am 06:50 Mostly Sunny 59 15 55 13 88 88 NE 2 4 30.00 1016 7 11 N/A
7:20 am 07:20 Mostly Sunny 59 15 55 13 88 88 Calm 30.03 1017 7 11 N/A
7:50 am 07:50 Mostly Sunny 61 16 57 14 88 88 Calm 30.03 1017 7 11 N/A
8:20 am 08:20 Mostly Sunny 61 16 57 14 88 88 VRB 2 4 30.03 1017 7 11 N/A
8:50 am 08:50 Mostly Sunny 63 17 57 14 83 83 E 3 6 30.03 1017 7 11 N/A
9:20 am 09:20 Mostly Sunny 64 18 57 14 78 78 VRB 2 4 30.03 1017 7 11 N/A
9:50 am 09:50 Mostly Sunny 66 19 57 14 73 73 VRB 1 2 30.03 1017 7 11 N/A
10:20 am 10:20 Mostly Sunny 66 19 57 14 73 73 VRB 2 4 30.03 1017 7 11 N/A
10:50 am 10:50 Mostly Sunny 68 20 55 13 64 64 NE 3 6 30.03 1017 7 11 N/A
11:20 am 11:20 Mostly Sunny 70 21 55 13 60 60 VRB 1 2 30.03 1017 7 11 N/A
11:50 am 11:50 Mostly Sunny 72 22 55 13 57 57 VRB 3 6 30.03 1017 7 11 N/A
12:20 pm 12:20 Mostly Sunny 72 22 54 12 53 53 N 5 7 30.03 1017 7 11 N/A
12:50 pm 12:50 Mostly Sunny 73 23 55 13 53 53 VRB 5 7 30.03 1017 7 11 N/A
1:20 pm 13:20 Mostly Sunny 77 25 55 13 47 47 NNE 7 11 30.03 1017 7 11 N/A
1:50 pm 13:50 Mostly Sunny 77 25 55 13 47 47 VRB 5 7 30.03 1017 7 11 N/A
2:20 pm 14:20 Mostly Sunny 77 25 55 13 47 47 NNE 6 9 30.00 1016 7 11 N/A
2:50 pm 14:50 Mostly Sunny 77 25 55 13 47 47 VRB 7 11 30.00 1016 7 11 N/A
3:20 pm 15:20 Mostly Sunny 81 27 57 14 45 45 NNE 7 11 30.00 1016 7 11 N/A
3:50 pm 15:50 Partly Cloudy with Showers Nearby 79 26 57 14 48 48 N 9 15 30.00 1016 30 48 N/A
4:20 pm 16:20 Partly Cloudy with Showers Nearby 79 26 55 13 45 45 N 7 11 30.00 1016 30 48 N/A
4:50 pm 16:50 Partly Cloudy with Showers Nearby 77 25 57 14 51 51 N 6 9 30.00 1016 30 48 N/A
5:20 pm 17:20 Partly Cloudy with Showers Nearby 79 26 57 14 48 48 NNW 8 13 30.00 1016 30 48 N/A
5:50 pm 17:50 Partly Cloudy with Showers Nearby 77 25 55 13 47 47 NW 8 13 30.00 1016 30 48 N/A
6:20 pm 18:20 Partly Cloudy with Showers Nearby 75 24 59 15 57 57 S 6 9 30.00 1016 30 48 N/A
6:50 pm 18:50 Partly Cloudy with Showers Nearby 75 24 57 14 54 54 VRB 6 9 30.00 1016 30 48 N/A
7:20 pm 19:20 Mostly Sunny 75 24 57 14 54 54 S 3 6 30.00 1016 7 11 N/A
7:50 pm 19:50 Mostly Sunny 75 24 57 14 54 54 VRB 3 6 30.00 1016 7 11 N/A
8:20 pm 20:20 Mostly Sunny 73 23 57 14 57 57 WNW 7 11 30.00 1016 7 11 N/A
8:50 pm 20:50 Mostly Sunny 70 21 57 14 64 64 VRB 2 4 30.03 1017 7 11 N/A
9:20 pm 21:20 Mostly Clear 68 20 57 14 69 69 W 3 6 30.03 1017 7 11 N/A
9:50 pm 21:50 Mostly Clear 68 20 55 13 64 64 VRB 2 4 30.03 1017 7 11 N/A
10:20 pm 22:20 Mostly Clear 64 18 55 13 73 73 W 5 7 30.03 1017 7 11 N/A
10:50 pm 22:50 Mostly Clear 64 18 55 13 73 73 WSW 3 6 30.03 1017 7 11 N/A
11:20 pm 23:20 Partly Cloudy 64 18 57 14 78 78 WSW 5 7 30.03 1017 30 48 N/A
11:50 pm 23:50 Mostly Clear 64 18 57 14 78 78 W 5 7 30.03 1017 30 48 N/A

Powered by AerisWeather